Location: Newark
(45.4422°N, 16.2769°E)
Time: 08:03:30
(UTC+00:00)

S-56A Canister/Altair - Pass Details

Date: 17 December 2019
Orbit: 634 x 2498 km, 38.9° (Epoch: 25 January)

Event Time Altitude Azimuth Distance (km) Brightness Sun altitude
Rises 04:06:18 0° 171° (S) 4,701 11.8 -24.0°
Reaches altitude 10° 04:11:59 10° 145° (SE) 4,163 11.8 -23.0°
Maximum altitude 04:16:02 12° 123° (ESE) 4,233 12.2 -22.3°
Drops below altitude 10° 04:20:29 10° 103° (ESE) 4,699 12.7 -21.5°
Sets 04:27:59 0° 80° (E) 6,022 13.3 -20.3°
